When you browse on this site, cookies collect data to enhance your experience and personalize the content and advertising you see.
Visit our Privacy Policy to learn more. By continuing to use the site, you agree to this use of cookies and data.
  • In Denmark
  • List of Countries
  • For 7 days
  • Water Temperature
  • Weather Map
  • Weather Widgets
  • user-avatar
    Login

    Hourly Weather Guararema

    Today, 27 May, Wednesday

    Time Temperature Precipitation Wind Pressure Humidity
    00:00 +12°C° 0 mm 2 mps 707 mmHg 82%
    01:00 +10°C° 0 mm 2 mps 707 mmHg 84%
    02:00 +11°C° 0 mm 1 mps 707 mmHg 86%
    03:00 +11°C° 0 mm 1 mps 707 mmHg 89%
    04:00 +10°C° 0 mm 1 mps 707 mmHg 89%
    05:00 +10°C° 0 mm 1 mps 707 mmHg 89%
    06:00 +10°C° 0 mm 1 mps 707 mmHg 90%
    07:00 +12°C° 0 mm 1 mps 708 mmHg 81%
    08:00 +14°C° 0 mm 1 mps 709 mmHg 72%
    09:00 +15°C° 0 mm 0 mps 709 mmHg 64%
    10:00 +19°C° 0 mm 1 mps 710 mmHg 57%
    11:00 +21°C° 0 mm 1 mps 710 mmHg 50%
    12:00 +23°C° 0 mm 1 mps 710 mmHg 44%
    13:00 +23°C° 0 mm 1 mps 710 mmHg 45%
    14:00 +23°C° 0 mm 1 mps 709 mmHg 46%
    15:00 +23°C° 0 mm 2 mps 709 mmHg 47%
    16:00 +19°C° 0 mm 2 mps 709 mmHg 62%
    17:00 +17°C° 0 mm 2 mps 709 mmHg 76%
    18:00 +14°C° 0 mm 2 mps 709 mmHg 91%
    19:00 +13°C° 0 mm 2 mps 709 mmHg 92%
    20:00 +13°C° 0 mm 1 mps 709 mmHg 93%
    21:00 +12°C° 0 mm 1 mps 710 mmHg 94%
    22:00 +12°C° 0 mm 1 mps 710 mmHg 94%
    23:00 +11°C° 0 mm 0 mps 710 mmHg 94%

    Tomorrow, 28 May, Thursday

    Time Temperature Precipitation Wind Pressure Humidity
    00:00 +11°C° 0 mm 0 mps 709 mmHg 93%
    01:00 +10°C° 0 mm 0 mps 709 mmHg 93%
    02:00 +10°C° 0 mm 0 mps 709 mmHg 93%
    03:00 +10°C° 0 mm 0 mps 709 mmHg 93%
    04:00 +10°C° 0 mm 0 mps 709 mmHg 92%
    05:00 +11°C° 0 mm 1 mps 710 mmHg 92%
    06:00 +11°C° 0 mm 1 mps 710 mmHg 91%
    07:00 +12°C° 0 mm 1 mps 710 mmHg 85%
    08:00 +13°C° 0 mm 1 mps 711 mmHg 79%
    09:00 +15°C° 0 mm 1 mps 711 mmHg 74%
    10:00 +18°C° 0 mm 1 mps 711 mmHg 65%
    11:00 +20°C° 0 mm 1 mps 711 mmHg 56%
    12:00 +22°C° 0 mm 1 mps 711 mmHg 47%
    13:00 +22°C° 0 mm 1 mps 711 mmHg 47%
    14:00 +22°C° 0 mm 1 mps 711 mmHg 46%
    15:00 +23°C° 0 mm 1 mps 710 mmHg 46%
    16:00 +20°C° 0 mm 1 mps 710 mmHg 59%
    17:00 +16°C° 0 mm 1 mps 710 mmHg 72%
    18:00 +14°C° 0 mm 1 mps 709 mmHg 85%
    19:00 +13°C° 0 mm 1 mps 710 mmHg 87%
    20:00 +13°C° 0 mm 1 mps 710 mmHg 90%
    21:00 +11°C° 0 mm 0 mps 710 mmHg 92%
    22:00 +11°C° 0 mm 0 mps 710 mmHg 92%
    23:00 +10°C° 0 mm 0 mps 710 mmHg 92%

    Day after tomorrow, 29 May, Friday

    Time Temperature Precipitation Wind Pressure Humidity
    00:00 +10°C° 0 mm 0 mps 709 mmHg 93%
    01:00 +11°C° 0 mm 1 mps 709 mmHg 93%
    02:00 +11°C° 0 mm 1 mps 709 mmHg 94%
    03:00 +10°C° 0 mm 1 mps 709 mmHg 94%
    04:00 +10°C° 0 mm 1 mps 709 mmHg 95%
    05:00 +10°C° 0 mm 1 mps 709 mmHg 95%
    06:00 +10°C° 0 mm 1 mps 709 mmHg 95%
    07:00 +11°C° 0 mm 1 mps 710 mmHg 89%
    08:00 +13°C° 0 mm 1 mps 710 mmHg 83%
    09:00 +15°C° 0 mm 1 mps 710 mmHg 77%
    10:00 +18°C° 0 mm 1 mps 710 mmHg 67%
    11:00 +21°C° 0 mm 1 mps 710 mmHg 57%
    12:00 +23°C° 0 mm 1 mps 710 mmHg 47%
    13:00 +24°C° 0 mm 1 mps 710 mmHg 45%
    14:00 +25°C° 0 mm 1 mps 710 mmHg 44%
    15:00 +23°C° 0 mm 0 mps 709 mmHg 42%
    16:00 +20°C° 0 mm 0 mps 709 mmHg 53%
    17:00 +18°C° 0 mm 0 mps 709 mmHg 63%
    18:00 +15°C° 0 mm 0 mps 709 mmHg 74%
    19:00 +15°C° 0 mm 0 mps 709 mmHg 75%
    20:00 +14°C° 0 mm 0 mps 709 mmHg 77%
    21:00 +13°C° 0 mm 0 mps 709 mmHg 79%
    22:00 +13°C° 0 mm 0 mps 709 mmHg 81%
    23:00 +13°C° 0 mm 0 mps 709 mmHg 83%

    30 May, Saturday

    Time Temperature Precipitation Wind Pressure Humidity
    00:00 +13°C° 0 mm 1 mps 709 mmHg 86%
    01:00 +13°C° 0 mm 1 mps 708 mmHg 87%
    02:00 +12°C° 0 mm 1 mps 708 mmHg 87%
    03:00 +12°C° 0 mm 1 mps 708 mmHg 88%
    04:00 +11°C° 0 mm 1 mps 708 mmHg 88%
    05:00 +11°C° 0 mm 1 mps 708 mmHg 88%
    06:00 +11°C° 0 mm 1 mps 708 mmHg 88%
    07:00 +13°C° 0 mm 1 mps 709 mmHg 80%
    08:00 +15°C° 0 mm 1 mps 709 mmHg 72%
    09:00 +18°C° 0 mm 1 mps 710 mmHg 64%
    10:00 +20°C° 0 mm 1 mps 710 mmHg 57%
    11:00 +22°C° 0 mm 1 mps 710 mmHg 51%
    12:00 +25°C° 0 mm 1 mps 710 mmHg 45%
    13:00 +25°C° 0 mm 2 mps 710 mmHg 45%
    14:00 +26°C° 0 mm 2 mps 709 mmHg 46%
    15:00 +26°C° 0 mm 2 mps 708 mmHg 47%
    16:00 +24°C° 0 mm 2 mps 708 mmHg 55%
    17:00 +20°C° 0 mm 2 mps 708 mmHg 64%
    18:00 +19°C° 0 mm 1 mps 708 mmHg 72%
    19:00 +18°C° 0 mm 1 mps 708 mmHg 76%
    20:00 +16°C° 0 mm 1 mps 708 mmHg 80%
    21:00 +16°C° 0 mm 1 mps 708 mmHg 84%
    22:00 +15°C° 0 mm 1 mps 708 mmHg 85%
    23:00 +15°C° 0 mm 1 mps 708 mmHg 87%

    31 May, Sunday

    Time Temperature Precipitation Wind Pressure Humidity
    00:00 +14°C° 0 mm 1 mps 708 mmHg 88%
    01:00 +14°C° 0 mm 1 mps 707 mmHg 89%
    02:00 +13°C° 0 mm 1 mps 707 mmHg 89%
    03:00 +13°C° 0 mm 1 mps 707 mmHg 90%
    04:00 +13°C° 0 mm 1 mps 707 mmHg 90%
    05:00 +13°C° 0 mm 1 mps 707 mmHg 90%
    06:00 +13°C° 0 mm 1 mps 707 mmHg 91%
    07:00 +15°C° 0 mm 1 mps 708 mmHg 84%
    08:00 +18°C° 0 mm 1 mps 708 mmHg 77%
    09:00 +19°C° 0 mm 1 mps 709 mmHg 70%
    10:00 +21°C° 0 mm 1 mps 709 mmHg 62%
    11:00 +23°C° 0 mm 2 mps 709 mmHg 54%
    12:00 +25°C° 0 mm 2 mps 710 mmHg 46%
    13:00 +26°C° 0 mm 2 mps 709 mmHg 46%
    14:00 +26°C° 0 mm 2 mps 709 mmHg 45%
    15:00 +26°C° 0 mm 2 mps 708 mmHg 44%
    16:00 +24°C° 0 mm 2 mps 708 mmHg 56%
    17:00 +20°C° 0 mm 2 mps 708 mmHg 69%
    18:00 +18°C° 0 mm 1 mps 708 mmHg 81%
    19:00 +18°C° 0 mm 1 mps 708 mmHg 84%
    20:00 +16°C° 0 mm 1 mps 709 mmHg 88%
    21:00 +15°C° 0 mm 1 mps 709 mmHg 92%
    22:00 +15°C° 0 mm 1 mps 709 mmHg 92%
    23:00 +15°C° 0 mm 1 mps 709 mmHg 92%

    1 June, Monday

    Time Temperature Precipitation Wind Pressure Humidity
    00:00 +16°C° 0 mm 1 mps 709 mmHg 93%
    01:00 +16°C° 0.1 mm 1 mps 709 mmHg 93%
    02:00 +16°C° 0.1 mm 1 mps 709 mmHg 92%
    03:00 +16°C° 0.1 mm 1 mps 709 mmHg 92%
    04:00 +14°C° 0.1 mm 0 mps 709 mmHg 93%
    05:00 +14°C° 0.1 mm 0 mps 709 mmHg 94%
    06:00 +14°C° 0.1 mm 0 mps 709 mmHg 95%
    07:00 +15°C° 0 mm 0 mps 709 mmHg 92%
    08:00 +16°C° 0 mm 1 mps 710 mmHg 89%
    09:00 +18°C° 0 mm 1 mps 710 mmHg 86%
    10:00 +20°C° 0 mm 1 mps 710 mmHg 77%
    11:00 +22°C° 0 mm 1 mps 710 mmHg 68%
    12:00 +24°C° 0 mm 1 mps 710 mmHg 58%
    13:00 +24°C° 0 mm 1 mps 710 mmHg 57%
    14:00 +25°C° 0 mm 1 mps 709 mmHg 56%
    15:00 +25°C° 0 mm 1 mps 708 mmHg 55%
    16:00 +23°C° 0 mm 1 mps 708 mmHg 66%
    17:00 +21°C° 0 mm 1 mps 708 mmHg 77%
    18:00 +19°C° 0 mm 1 mps 708 mmHg 89%
    19:00 +18°C° 0 mm 1 mps 708 mmHg 91%
    20:00 +18°C° 0 mm 1 mps 707 mmHg 93%
    21:00 +16°C° 0 mm 1 mps 707 mmHg 95%
    22:00 +16°C° 0 mm 1 mps 707 mmHg 94%
    23:00 +16°C° 0 mm 1 mps 707 mmHg 94%
    Show more